EDT,Max TemperatureF,Mean TemperatureF,Min TemperatureF,Max Dew PointF,MeanDew PointF,Min DewpointF,Max Humidity, Mean Humidity, Min Humidity, Max Sea Level PressureIn, Mean Sea Level PressureIn, Min Sea Level PressureIn, Max VisibilityMiles, Mean VisibilityMiles, Min VisibilityMiles, Max Wind SpeedMPH, Mean Wind SpeedMPH, Max Gust SpeedMPH,PrecipitationIn, CloudCover, Events, WindDirDegrees
2012-10-1,86,78,69,77,74,70,100,88,70,29.86,29.81,29.78,10,7,0,14,5,24,0.78,3,Rain-Thunderstorm,163
2012-10-2,86,82,77,79,76,73,100,86,70,30.01,29.87,29.77,10,7,3,18,9,23,0.25,3,Rain-Thunderstorm,181
2012-10-3,84,78,73,77,71,63,100,78,48,30.20,30.10,30.00,10,9,5,8,5,,0.06,2,Rain,202
2012-10-4,82,76,69,73,71,70,100,89,70,30.24,30.20,30.17,10,7,3,9,2,,0.13,2,Rain,322
2012-10-5,84,75,66,72,68,63,100,83,51,30.18,30.11,30.03,10,9,3,8,2,,0.00,0,Rain,50
2012-10-6,84,74,64,70,68,64,100,84,54,30.03,29.97,29.90,10,7,2,10,2,,0.00,1,,178
2012-10-7,86,76,66,73,70,66,100,86,51,30.03,29.97,29.93,10,8,1,12,3,,0.03,2,Rain,231
2012-10-8,69,61,53,64,59,54,100,89,78,30.10,30.06,30.01,10,8,2,17,7,24,0.39,8,Rain-Thunderstorm,8
2012-10-9,64,58,51,55,53,50,100,90,72,30.14,30.10,30.07,10,8,1,13,7,18,0.11,5,Rain,348
2012-10-10,77,62,46,61,55,46,100,84,50,30.15,30.10,30.02,10,7,0,13,2,,0.63,1,Rain,299
2012-10-11,73,63,53,57,54,50,100,78,46,30.27,30.21,30.13,10,8,3,10,3,,0.56,0,Rain,43
2012-10-12,78,64,51,61,56,52,100,82,42,30.26,30.21,30.15,10,8,3,7,1,,0.73,0,Rain,221
2012-10-13,75,66,57,63,57,55,100,76,57,30.36,30.31,30.25,10,10,8,14,5,22,0.16,1,Rain,30
2012-10-14,80,68,57,64,59,55,100,78,42,30.29,30.18,30.06,10,10,7,10,3,,0.15,0,Rain,81
2012-10-15,80,71,62,70,67,61,100,86,65,30.05,29.89,29.78,10,9,2,13,3,17,0.15,1,Rain-Thunderstorm,228
2012-10-16,73,63,53,61,51,45,100,70,36,29.97,29.91,29.85,10,10,7,9,5,,0.00,0,Rain,3
2012-10-17,73,63,53,61,56,52,100,84,57,30.02,29.95,29.92,10,8,4,6,1,,0.14,0,Rain,52
2012-10-18,78,68,59,70,65,57,100,87,65,29.92,29.86,29.81,10,9,5,13,3,16,0.00,1,Rain,182
2012-10-19,78,66,55,72,55,43,94,64,28,29.86,29.81,29.75,10,9,2,13,6,16,0.05,1,Rain,265
2012-10-20,75,63,51,55,49,43,100,64,31,29.95,29.87,29.82,10,10,7,12,4,,0.02,0,Rain,261
2012-10-21,73,62,51,54,50,46,100,72,38,30.16,30.07,29.94,10,10,9,7,3,,0.02,0,Rain,26
2012-10-22,73,60,46,52,48,45,100,71,36,30.23,30.18,30.15,10,10,7,7,2,,0.05,0,Rain,50
2012-10-23,78,63,48,64,57,48,100,82,53,30.21,30.16,30.12,10,9,5,9,1,,0.04,0,Rain,79
2012-10-24,82,70,57,66,62,57,100,84,51,30.18,30.13,30.09,10,8,4,9,1,,0.00,1,Rain,60
2012-10-25,80,72,64,70,66,63,100,85,61,30.10,30.06,30.03,10,9,5,12,3,24,0.00,1,,48
2012-10-26,78,72,66,68,65,63,100,81,61,30.02,29.90,29.78,10,9,5,12,6,23,0.00,1,,15
2012-10-27,69,66,64,64,63,57,100,87,73,29.77,29.60,29.53,10,6,2,16,10,26,0.79,7,Rain,354
2012-10-28,71,64,57,57,54,52,94,68,53,29.62,29.58,29.55,10,10,9,17,12,26,0.00,1,,332
2012-10-29,64,57,50,52,40,34,72,52,34,29.66,29.60,29.53,10,10,10,21,13,30,0.00,2,,306
2012-10-30,59,52,46,36,33,28,62,48,36,29.75,29.62,29.55,10,10,10,17,11,24,0.00,1,,265
2012-10-31,66,55,44,37,31,23,76,43,19,29.85,29.79,29.74,10,10,10,16,10,24,0.00,0,,264